EW6538 Weather Reports


Display with metric or nautical units.
time (UTC)temp
F
wind
direction
speed
MPH
gust
MPH
rain 1hr
in
rain 24hr
in
rain mn
in
humidity
%
barometer
mb
20220627043934 73 127 4.0 8.0 0.00 0.00 0.00 54 1014.6
20220627043432 73 139 5.0 8.0 0.00 0.00 0.00 57 1014.6
20220627042937 73 148 4.0 8.0 0.00 0.00 0.00 57 1014.6
20220627042437 73 153 4.0 9.0 0.00 0.00 0.00 57 1014.5
20220627041931 74 140 4.0 9.0 0.00 0.00 0.00 57 1014.5
20220627041431 73 145 4.0 8.0 0.00 0.00 0.00 58 1014.4
20220627040933 73 139 5.0 8.0 0.00 0.00 0.00 60 1014.4
20220627040435 72 129 6.0 8.0 0.00 0.00 0.00 59 1014.4
20220627035934 72 117 7.0 8.0 0.00 0.00 0.00 60 1014.4
20220627035433 72 116 6.0 8.0 0.00 0.00 0.00 61 1014.4
20220627034941 72 112 6.0 8.0 0.00 0.00 0.00 59 1014.3
20220627034435 73 106 6.0 9.0 0.00 0.00 0.00 55 1014.3
20220627033934 73 107 7.0 9.0 0.00 0.00 0.00 56 1014.4
20220627033434 73 113 7.0 9.0 0.00 0.00 0.00 57 1014.4
20220627032934 74 105 8.0 10.0 0.00 0.00 0.00 54 1014.4
20220627032435 74 106 8.0 10.0 0.00 0.00 0.00 51 1014.4
20220627031934 74 103 8.0 10.0 0.00 0.00 0.00 53 1014.4
20220627031433 74 104 7.0 10.0 0.00 0.00 0.00 56 1014.5
20220627030932 74 104 6.0 9.0 0.00 0.00 0.00 56 1014.4
20220627030430 74 107 6.0 9.0 0.00 0.00 0.00 55 1014.4
20220627025932 74 98 5.0 8.0 0.00 0.00 0.00 56 1014.5
20220627025432 75 96 5.0 7.0 0.00 0.00 0.00 59 1014.4
20220627024932 75 94 6.0 7.0 0.00 0.00 0.00 58 1014.4
20220627024429 75 87 6.0 8.0 0.00 0.00 0.00 56 1014.5
20220627023928 76 93 7.0 8.0 0.00 0.00 0.00 57 1014.5
20220627023425 76 91 7.0 9.0 0.00 0.00 0.00 54 1014.6
20220627022925 76 89 7.0 9.0 0.00 0.00 0.00 54 1014.6
20220627022425 76 94 7.0 9.0 0.00 0.00 0.00 56 1014.5
20220627021928 76 94 7.0 9.0 0.00 0.00 0.00 55 1014.5
20220627021425 76 85 6.0 8.0 0.00 0.00 0.00 53 1014.6
20220627020927 77 82 5.0 7.0 0.00 0.00 0.00 53 1014.6
20220627020427 77 84 4.0 7.0 0.00 0.00 0.00 53 1014.7
20220627015927 77 86 4.0 7.0 0.00 0.00 0.00 54 1014.7
20220627015419 78 80 5.0 7.0 0.00 0.00 0.00 51 1014.7
20220627014920 78 82 5.0 8.0 0.00 0.00 0.00 52 1014.7
20220627014424 78 73 4.0 8.0 0.00 0.00 0.00 52 1014.8
20220627013925 78 75 4.0 7.0 0.00 0.00 0.00 54 1014.8
20220627013433 78 77 4.0 7.0 0.00 0.00 0.00 56 1014.8
20220627012920 79 75 4.0 5.0 0.00 0.00 0.00 55 1014.8
20220627012422 79 66 4.0 5.0 0.00 0.00 0.00 55 1014.8
20220627011918 79 65 4.0 7.0 0.00 0.00 0.00 54 1014.9
20220627011422 79 59 4.0 8.0 0.00 0.00 0.00 50 1014.9
20220627010914 80 57 4.0 8.0 0.00 0.00 0.00 47 1014.9
20220627010412 80 65 4.0 7.0 0.00 0.00 0.00 48 1015.0
20220627005913 80 61 5.0 9.0 0.00 0.00 0.00 52 1015.0
20220627005424 80 59 5.0 9.0 0.00 0.00 0.00 47 1015.0
20220627004916 80 68 5.0 9.0 0.00 0.00 0.00 48 1015.0
20220627004412 80 64 5.0 9.0 0.00 0.00 0.00 48 1015.1
20220627003912 80 56 6.0 9.0 0.00 0.00 0.00 47 1015.1
20220627003412 80 63 6.0 9.0 0.00 0.00 0.00 45 1015.3
20220627002911 80 52 6.0 10.0 0.00 0.00 0.00 42 1015.3
20220627002414 80 65 6.0 10.0 0.00 0.00 0.00 48 1015.3
20220627001913 80 51 5.0 9.0 0.00 0.00 0.00 48 1015.3
20220627001417 80 53 6.0 10.0 0.00 0.00 0.00 51 1015.3
20220627000920 80 54 6.0 10.0 0.00 0.00 0.00 44 1015.4
20220627000417 80 57 6.0 9.0 0.00 0.00 0.00 47 1015.4
20220626235916 80 65 6.0 9.0 0.00 0.00 0.00 46 1015.4
20220626235413 80 57 6.0 9.0 0.00 0.00 0.00 48 1015.4
20220626234910 81 72 6.0 10.0 0.00 0.00 0.00 47 1015.5
20220626234412 81 63 6.0 10.0 0.00 0.00 0.00 46 1015.5
20220626233909 81 56 5.0 9.0 0.00 0.00 0.00 47 1015.6
20220626233407 81 55 5.0 9.0 0.00 0.00 0.00 48 1015.7
20220626232903 81 46 5.0 9.0 0.00 0.00 0.00 50 1015.7
20220626232409 81 46 5.0 9.0 0.00 0.00 0.00 51 1015.8
20220626231859 81 11 5.0 9.0 0.00 0.00 0.00 52 1015.8
20220626231357 82 15 4.0 12.0 0.00 0.00 0.00 49 1015.9
20220626230849 82 62 3.0 12.0 0.00 0.00 0.00 51 1015.9
20220626230401 82 38 2.0 7.0 0.00 0.00 0.00 49 1015.9
20220626225850 82 61 3.0 5.0 0.00 0.00 0.00 41 1016.0
20220626225346 82 61 3.0 5.0 0.00 0.00 0.00 43 1016.0
20220626224843 82 71 3.0 7.0 0.00 0.00 0.00 43 1016.0
20220626224346 82 82 3.0 7.0 0.00 0.00 0.00 41 1016.1
20220626223842 82 77 4.0 8.0 0.00 0.00 0.00 45 1016.1
20220626223340 82 89 3.0 8.0 0.00 0.00 0.00 43 1016.2
20220626222838 82 90 3.0 6.0 0.00 0.00 0.00 45 1016.2
20220626222336 82 84 4.0 7.0 0.00 0.00 0.00 48 1016.2
20220626221836 81 115 4.0 7.0 0.00 0.00 0.00 44 1016.3
20220626221334 81 86 3.0 6.0 0.00 0.00 0.00 48 1016.3
20220626220849 80 98 4.0 5.0 0.00 0.00 0.00 44 1016.4
20220626220350 80 67 4.0 7.0 0.00 0.00 0.00 47 1016.4
20220626215837 80 48 4.0 8.0 0.00 0.00 0.00 48 1016.4
20220626215338 80 56 4.0 8.0 0.00 0.00 0.00 46 1016.4
20220626214835 80 76 4.0 9.0 0.00 0.00 0.00 49 1016.4
20220626214346 79 90 4.0 9.0 0.00 0.00 0.00 45 1016.5
20220626213847 79 47 3.0 7.0 0.00 0.00 0.00 48 1016.7
20220626213341 79 46 3.0 8.0 0.00 0.00 0.00 47 1016.7
20220626212832 79 63 3.0 8.0 0.00 0.00 0.00 47 1016.7
20220626212330 79 55 3.0 7.0 0.00 0.00 0.00 49 1016.8
20220626211825 79 57 4.0 7.0 0.00 0.00 0.00 47 1016.8
20220626211329 78 63 4.0 8.0 0.00 0.00 0.00 44 1016.9
20220626210828 78 55 3.0 8.0 0.00 0.00 0.00 47 1016.9
20220626210314 78 5 4.0 8.0 0.00 0.00 0.00 45 1016.9
20220626205811 78 66 5.0 8.0 0.00 0.00 0.00 46 1016.9
20220626205309 78 76 4.0 9.0 0.00 0.00 0.00 49 1017.0
20220626204810 78 75 4.0 9.0 0.00 0.00 0.00 44 1017.1
20220626204322 78 76 4.0 8.0 0.00 0.00 0.00 45 1017.1
20220626203824 78 40 3.0 6.0 0.00 0.00 0.00 44 1017.1
20220626203308 78 76 4.0 7.0 0.00 0.00 0.00 51 1017.2
20220626202807 78 55 4.0 7.0 0.00 0.00 0.00 46 1017.3
20220626202315 77 0 4.0 7.0 0.00 0.00 0.00 47 1017.3
20220626201809 77 355 4.0 8.0 0.00 0.00 0.00 45 1017.4
20220626201310 77 355 4.0 8.0 0.00 0.00 0.00 47 1017.4
20220626200812 77 19 4.0 10.0 0.00 0.00 0.00 46 1017.4
20220626200306 77 17 4.0 10.0 0.00 0.00 0.00 46 1017.4
20220626195809 77 5 4.0 6.0 0.00 0.00 0.00 48 1017.5
20220626195307 76 50 3.0 6.0 0.00 0.00 0.00 47 1017.5
20220626194805 76 19 3.0 5.0 0.00 0.00 0.00 44 1017.6
20220626194300 76 58 4.0 8.0 0.00 0.00 0.00 45 1017.6
20220626193750 76 71 5.0 8.0 0.00 0.00 0.00 45 1017.6
20220626193249 76 93 4.0 8.0 0.00 0.00 0.00 46 1017.6
20220626192750 76 90 4.0 8.0 0.00 0.00 0.00 52 1017.6
20220626192245 76 355 3.0 7.0 0.00 0.00 0.00 52 1017.6
20220626191747 76 67 3.0 6.0 0.00 0.00 0.00 51 1017.7
20220626191244 76 73 2.0 6.0 0.00 0.00 0.00 52 1017.7
20220626190746 75 94 2.0 6.0 0.00 0.00 0.00 54 1017.7
20220626190249 74 17 3.0 8.0 0.00 0.00 0.00 55 1017.7
20220626185746 74 68 4.0 8.0 0.00 0.00 0.00 57 1017.7
20220626185251 74 86 4.0 7.0 0.00 0.00 0.00 53 1017.7
20220626184746 74 46 3.0 6.0 0.00 0.00 0.00 56 1017.8
20220626184243 74 111 3.0 6.0 0.00 0.00 0.00 54 1017.8
20220626183744 74 15 3.0 6.0 0.00 0.00 0.00 57 1017.7
20220626183243 73 12 3.0 5.0 0.00 0.00 0.00 56 1017.8
20220626182745 74 66 3.0 6.0 0.00 0.00 0.00 55 1017.9
20220626182246 73 56 2.0 6.0 0.00 0.00 0.00 53 1017.9
20220626181743 73 28 2.0 4.0 0.00 0.00 0.00 55 1018.0
20220626181243 73 312 2.0 5.0 0.00 0.00 0.00 56 1018.0
20220626180744 73 339 2.0 5.0 0.00 0.00 0.00 59 1018.2
20220626180249 72 62 2.0 4.0 0.00 0.00 0.00 58 1018.2
20220626175736 72 62 2.0 4.0 0.00 0.00 0.00 59 1018.2
20220626175232 72 59 3.0 7.0 0.00 0.00 0.00 60 1018.2
20220626174733 71 63 3.0 7.0 0.00 0.00 0.00 60 1018.2
20220626174235 71 80 3.0 5.0 0.00 0.00 0.00 58 1018.3
20220626173738 71 62 3.0 5.0 0.00 0.00 0.00 57 1018.3
20220626173232 72 41 2.0 5.0 0.00 0.00 0.00 59 1018.3
20220626172735 72 46 1.0 5.0 0.00 0.00 0.00 56 1018.3
20220626172234 72 176 1.0 2.0 0.00 0.00 0.00 55 1018.3
20220626171733 71 156 2.0 4.0 0.00 0.00 0.00 53 1018.3
20220626171237 71 98 2.0 4.0 0.00 0.00 0.00 52 1018.3
20220626170736 71 83 2.0 4.0 0.00 0.00 0.00 51 1018.3
20220626170232 70 79 1.0 3.0 0.00 0.00 0.00 51 1018.3
20220626165732 70 94 1.0 3.0 0.00 0.00 0.00 50 1018.4
20220626165233 69 273 1.0 3.0 0.00 0.00 0.00 51 1018.4
20220626164733 69 273 2.0 6.0 0.00 0.00 0.00 52 1018.4
20220626164234 69 273 2.0 6.0 0.00 0.00 0.00 52 1018.5
20220626163732 69 263 1.0 6.0 0.00 0.00 0.00 52 1018.6
20220626163233 68 284 1.0 4.0 0.00 0.00 0.00 51 1018.6
20220626162733 68 283 2.0 4.0 0.00 0.00 0.00 52 1018.6
20220626162231 68 23 1.0 3.0 0.00 0.00 0.00 51 1018.6
20220626161732 67 258 1.0 3.0 0.00 0.00 0.00 52 1018.6
20220626161230 67 258 2.0 6.0 0.00 0.00 0.00 53 1018.7
20220626160733 67 259 2.0 6.0 0.00 0.00 0.00 55 1018.6
20220626160234 67 259 2.0 5.0 0.00 0.00 0.00 56 1018.6
20220626155735 66 259 2.0 5.0 0.00 0.00 0.00 54 1018.6
20220626155235 66 266 3.0 4.0 0.00 0.00 0.00 56 1018.7
20220626154733 66 279 3.0 5.0 0.00 0.00 0.00 59 1018.6
20220626154233 65 240 3.0 6.0 0.00 0.00 0.00 59 1018.7
20220626153733 65 258 3.0 6.0 0.00 0.00 0.00 60 1018.7
20220626153231 65 247 2.0 5.0 0.00 0.00 0.00 61 1018.6
20220626152730 65 232 2.0 8.0 0.00 0.00 0.00 63 1018.6
20220626152231 65 221 2.0 8.0 0.00 0.00 0.00 62 1018.6
20220626151731 64 217 2.0 4.0 0.00 0.00 0.00 64 1018.6
20220626151233 64 213 2.0 4.0 0.00 0.00 0.00 59 1018.6
20220626150733 64 212 3.0 5.0 0.00 0.00 0.00 62 1018.5
20220626150228 63 212 3.0 5.0 0.00 0.00 0.00 66 1018.5
20220626145729 63 212 3.0 5.0 0.00 0.00 0.00 64 1018.5
20220626145231 63 194 3.0 5.0 0.00 0.00 0.00 66 1018.5
20220626144736 63 194 3.0 5.0 0.00 0.00 0.00 67 1018.4
20220626144234 62 194 2.0 5.0 0.00 0.00 0.00 65 1018.4
20220626143730 62 173 2.0 5.0 0.00 0.00 0.00 67 1018.5
20220626143232 62 173 2.0 5.0 0.00 0.00 0.00 67 1018.5
20220626142733 61 174 3.0 6.0 0.00 0.00 0.00 68 1018.5
20220626142231 61 163 3.0 6.0 0.00 0.00 0.00 68 1018.4
20220626141731 60 180 3.0 6.0 0.00 0.00 0.00 69 1018.4
20220626141235 60 180 3.0 6.0 0.00 0.00 0.00 71 1018.5
20220626140731 59 175 4.0 7.0 0.00 0.00 0.00 71 1018.5
20220626140233 59 185 3.0 7.0 0.00 0.00 0.00 72 1018.5
20220626135730 58 175 3.0 6.0 0.00 0.00 0.00 73 1018.5
20220626135230 58 181 3.0 5.0 0.00 0.00 0.00 74 1018.6
20220626134732 57 184 3.0 6.0 0.00 0.00 0.00 76 1018.4
20220626134231 57 183 3.0 6.0 0.00 0.00 0.00 75 1018.4
20220626133730 56 190 4.0 5.0 0.00 0.00 0.00 76 1018.4
20220626133232 56 193 3.0 5.0 0.00 0.00 0.00 76 1018.3
20220626132730 55 189 2.0 5.0 0.00 0.00 0.00 75 1018.2
20220626132231 55 178 3.0 4.0 0.00 0.00 0.00 75 1018.2
20220626131737 55 178 3.0 5.0 0.00 0.00 0.00 74 1018.2
20220626131229 54 185 4.0 6.0 0.00 0.00 0.00 74 1018.2
20220626130730 54 188 5.0 6.0 0.00 0.00 0.00 74 1018.0
20220626130234 54 177 5.0 7.0 0.00 0.00 0.00 75 1018.2
20220626125735 53 181 5.0 7.0 0.00 0.00 0.00 76 1018.0
20220626125232 53 178 5.0 8.0 0.00 0.00 0.00 76 1018.0
20220626124732 52 186 5.0 8.0 0.00 0.00 0.00 77 1018.0
20220626124230 52 175 5.0 7.0 0.00 0.00 0.00 78 1018.0
20220626123730 52 175 5.0 7.0 0.00 0.00 0.00 77 1018.2
20220626123233 52 184 5.0 7.0 0.00 0.00 0.00 75 1018.0
20220626122736 52 180 5.0 7.0 0.00 0.00 0.00 75 1018.0
20220626122233 52 191 4.0 7.0 0.00 0.00 0.00 73 1018.0
20220626121732 52 196 3.0 6.0 0.00 0.00 0.00 73 1017.9
20220626121231 52 196 1.0 5.0 0.00 0.00 0.00 71 1017.9
20220626120732 54 196 2.0 5.0 0.00 0.00 0.00 68 1017.9
20220626120232 55 196 4.0 5.0 0.00 0.00 0.00 66 1017.9
20220626115733 55 196 4.0 5.0 0.00 0.00 0.00 67 1017.9
20220626115230 53 193 4.0 6.0 0.00 0.00 0.00 71 1017.9
20220626114730 52 193 5.0 6.0 0.00 0.00 0.00 75 1017.9
20220626114231 51 180 4.0 6.0 0.00 0.00 0.00 75 1018.0
20220626113730 51 171 3.0 6.0 0.00 0.00 0.00 77 1018.0
20220626113226 51 167 4.0 5.0 0.00 0.00 0.00 76 1018.0
20220626112724 52 163 4.0 5.0 0.00 0.00 0.00 74 1017.9
20220626112214 52 130 4.0 5.0 0.00 0.00 0.00 73 1017.9
20220626111716 53 142 4.0 7.0 0.00 0.00 0.00 72 1017.9
20220626111204 53 144 5.0 7.0 0.00 0.00 0.00 71 1017.9
20220626110705 53 145 6.0 7.0 0.00 0.00 0.00 70 1017.8
20220626110205 54 161 5.0 7.0 0.00 0.00 0.00 68 1017.8
20220626105704 53 166 4.0 7.0 0.00 0.00 0.00 69 1017.8
20220626105207 54 178 3.0 5.0 0.00 0.00 0.00 68 1017.8
20220626104703 54 178 4.0 5.0 0.00 0.00 0.00 68 1017.8
20220626104204 54 178 4.0 5.0 0.00 0.00 0.00 66 1017.8
20220626103703 54 178 4.0 6.0 0.00 0.00 0.00 64 1017.8
20220626103206 54 178 3.0 6.0 0.00 0.00 0.00 64 1017.8
20220626102703 54 171 4.0 6.0 0.00 0.00 0.00 65 1017.8
20220626102205 54 171 4.0 6.0 0.00 0.00 0.00 66 1017.9
20220626101702 54 171 4.0 6.0 0.00 0.00 0.00 65 1017.8
20220626101201 54 171 5.0 6.0 0.00 0.00 0.00 64 1017.8
20220626100701 54 171 5.0 6.0 0.00 0.00 0.00 63 1017.8
20220626100206 55 169 4.0 6.0 0.00 0.00 0.00 61 1017.8
20220626095703 55 168 4.0 6.0 0.00 0.00 0.00 60 1017.9
20220626095205 55 169 4.0 6.0 0.00 0.00 0.00 56 1017.9
20220626094700 54 161 4.0 6.0 0.00 0.00 0.00 61 1017.9
20220626094203 54 161 3.0 6.0 0.00 0.00 0.00 63 1018.0
20220626093700 56 181 2.0 4.0 0.00 0.00 0.00 61 1017.9
20220626093206 57 181 2.0 4.0 0.00 0.00 0.00 57 1017.9
20220626092659 57 181 3.0 5.0 0.00 0.00 0.00 55 1017.9
20220626092156 58 182 3.0 5.0 0.00 0.00 0.00 57 1017.9
20220626091658 59 182 4.0 7.0 0.00 0.00 0.00 54 1017.9
20220626091159 58 182 4.0 7.0 0.00 0.00 0.00 52 1017.9
20220626090657 57 174 4.0 5.0 0.00 0.00 0.00 57 1017.9
20220626090157 57 171 5.0 5.0 0.00 0.00 0.00 55 1017.9
20220626085655 56 164 4.0 5.0 0.00 0.00 0.00 56 1017.9
20220626085156 54 164 3.0 5.0 0.00 0.00 0.00 64 1017.9
20220626084654 54 164 3.0 5.0 0.00 0.00 0.00 65 1017.8
20220626084156 54 164 2.0 4.0 0.00 0.00 0.00 65 1017.8
20220626083653 54 164 2.0 4.0 0.00 0.00 0.00 64 1017.8
20220626083156 54 164 3.0 6.0 0.00 0.00 0.00 64 1017.8
20220626082655 54 164 4.0 6.0 0.00 0.00 0.00 64 1017.8
20220626082151 54 182 4.0 6.0 0.00 0.00 0.00 63 1017.8
20220626081654 56 171 6.0 7.0 0.00 0.00 0.00 59 1017.7
20220626081155 57 160 6.0 8.0 0.00 0.00 0.00 56 1017.8
20220626080651 56 156 6.0 8.0 0.00 0.00 0.00 57 1017.8
20220626080150 56 167 6.0 7.0 0.00 0.00 0.00 59 1017.8
20220626075658 56 157 5.0 7.0 0.00 0.00 0.00 59 1017.8
20220626075153 56 161 5.0 6.0 0.00 0.00 0.00 57 1017.8
20220626074648 56 161 4.0 6.0 0.00 0.00 0.00 57 1017.9
20220626074148 57 157 4.0 6.0 0.00 0.00 0.00 55 1017.9
20220626073651 58 157 4.0 6.0 0.00 0.00 0.00 53 1017.9
20220626073150 59 157 5.0 8.0 0.00 0.00 0.00 53 1017.9
20220626072648 60 157 6.0 8.0 0.00 0.00 0.00 48 1017.9
20220626072148 59 158 6.0 8.0 0.00 0.00 0.00 48 1017.9
20220626071650 59 156 6.0 8.0 0.00 0.00 0.00 51 1017.9
20220626071149 59 161 6.0 7.0 0.00 0.00 0.00 50 1018.0
20220626070650 60 157 5.0 7.0 0.00 0.00 0.00 51 1017.9
20220626070147 60 157 6.0 8.0 0.00 0.00 0.00 49 1017.9
20220626065644 60 157 6.0 8.0 0.00 0.00 0.00 48 1017.9
20220626065138 60 152 7.0 8.0 0.00 0.00 0.00 48 1017.9
20220626064638 61 155 6.0 8.0 0.00 0.00 0.00 47 1017.9
20220626064138 61 157 7.0 9.0 0.00 0.00 0.00 47 1017.9
20220626063641 62 154 6.0 9.0 0.00 0.00 0.00 48 1017.9
20220626063137 62 164 6.0 8.0 0.00 0.00 0.00 47 1018.0
20220626062637 62 154 6.0 8.0 0.00 0.00 0.00 47 1017.9
20220626062136 61 153 6.0 8.0 0.00 0.00 0.00 48 1017.9
20220626061632 61 154 7.0 8.0 0.00 0.00 0.00 49 1017.9
20220626061134 61 155 7.0 9.0 0.00 0.00 0.00 49 1017.9
20220626060633 62 151 6.0 9.0 0.00 0.00 0.00 49 1017.9
20220626060135 62 143 5.0 8.0 0.00 0.00 0.00 47 1018.0
20220626055635 62 153 4.0 7.0 0.00 0.00 0.00 48 1018.0
20220626055131 62 145 4.0 7.0 0.00 0.00 0.00 48 1017.9
20220626054636 62 145 5.0 7.0 0.00 0.00 0.00 50 1017.9
20220626054123 62 156 5.0 7.0 0.00 0.00 0.00 52 1017.9
20220626053623 62 154 4.0 6.0 0.00 0.00 0.00 52 1017.9
20220626053119 62 154 4.0 6.0 0.00 0.00 0.00 51 1017.9
20220626052619 62 154 4.0 8.0 0.00 0.00 0.00 51 1018.0
20220626052117 63 155 5.0 8.0 0.00 0.00 0.00 50 1018.0
20220626051618 63 155 5.0 7.0 0.00 0.00 0.00 49 1018.2
20220626051113 63 153 6.0 8.0 0.00 0.00 0.00 49 1018.2
20220626050611 63 146 5.0 8.0 0.00 0.00 0.00 49 1018.2
20220626050109 63 152 4.0 7.0 0.00 0.00 0.00 52 1018.2
20220626045612 62 153 5.0 8.0 0.00 0.00 0.00 54 1018.2
20220626045111 61 153 5.0 8.0 0.00 0.00 0.00 57 1018.2
20220626044610 61 153 5.0 8.0 0.00 0.00 0.00 59 1018.0
20220626044107 62 153 5.0 7.0 0.00 0.00 0.00 59 1018.0